Date String (YYYY-MM-DD hh:mm:ss) UTC,Instrument flags,Ambient pressure (hPa),Sample flow (lpm),Bypass flow (lpm),Sample temperature (°C),Ambient temperature (°C),ASC tube jacket temperature (°C),LED temperature (°C),Box temperature (°C),Sample RH (%),Span deviation,Mass concentration (μg/m³),Mass concentration (μg/m³),Mass concentration (μg/m³)
DateTimeUTC,F1_M11,P_M11,Q1_M11,Q2_M11,T1_M11,T2_M11,T3_M11,T4_M11,T5_M11,U1_M11,ZSPAN_M11,X0_M11,X2_M11,X1_M11
2023-01-12 09:00:00,,0831.2,5.01,0.00,22.5,21.1,00.0,31.4,24.2,17.3,-002.4,0018.66,0012.78,0012.43
2023-01-12 09:01:00,,0831.2,4.99,0.00,22.5,21.1,00.0,31.4,24.2,17.4,-002.4,0018.89,0012.97,0012.63
2023-01-12 09:02:00,,0831.2,5.00,0.00,22.4,21.2,00.0,31.4,24.2,17.5,-002.5,0019.04,0013.05,0012.71
2023-01-12 09:03:00,,0831.2,5.00,0.00,22.4,21.1,00.0,31.4,24.1,17.6,-002.6,0019.24,0013.21,0012.84
2023-01-12 09:04:00,,0831.2,5.00,0.00,22.4,21.1,00.0,31.4,24.1,17.7,-002.7,0019.55,0013.39,0013.01
2023-01-12 09:05:00,,0831.3,5.00,0.00,22.4,21.0,00.0,31.4,24.1,17.7,-002.6,0019.77,0013.54,0013.13
2023-01-12 09:06:00,,0831.3,5.01,0.00,22.4,21.0,00.0,31.3,24.1,17.8,-002.6,0019.60,0013.65,0013.23
2023-01-12 09:07:00,,0831.3,5.00,0.00,22.4,21.0,00.0,31.3,24.1,17.9,-002.5,0019.78,0013.79,0013.37
2023-01-12 09:08:00,,0831.3,5.01,0.00,22.4,21.0,00.0,31.3,24.1,18.0,-002.5,0020.05,0013.95,0013.52
2023-01-12 09:09:00,,0831.4,5.00,0.00,22.4,21.0,00.0,31.3,24.0,18.1,-002.5,0020.26,0014.11,0013.67
2023-01-12 09:10:00,,0831.5,5.00,0.00,22.3,21.0,00.0,31.3,24.0,18.1,-002.5,0020.48,0014.25,0013.83
2023-01-12 09:11:00,,0831.5,5.00,0.00,22.4,21.5,00.0,31.3,24.2,18.2,-002.5,0020.65,0014.38,0013.99
2023-01-12 09:12:00,,0831.5,5.01,0.00,22.5,22.3,00.0,31.3,24.4,18.1,-002.5,0020.89,0014.50,0014.07
2023-01-12 09:13:00,,0831.6,5.00,0.00,22.6,23.1,00.0,31.3,24.6,18.0,-002.5,0021.50,0014.60,0014.14
2023-01-12 09:14:00,,0831.6,4.99,0.00,22.6,22.8,00.0,31.3,24.7,17.9,-002.4,0021.87,0014.67,0014.22
2023-01-12 09:15:00,,0831.7,5.01,0.00,22.7,22.4,00.0,31.4,24.6,17.9,-002.5,0021.93,0014.71,0014.29
2023-01-12 09:16:00,,0831.6,5.00,0.00,22.7,22.1,00.0,31.4,24.5,17.9,-002.5,0021.90,0014.73,0014.34
2023-01-12 09:17:00,,0831.7,5.00,0.00,22.6,21.9,00.0,31.4,24.5,18.0,-002.5,0022.01,0014.75,0014.35
2023-01-12 09:18:00,,0831.7,5.02,0.00,22.6,21.7,00.0,31.4,24.4,18.0,-002.6,0021.95,0014.70,0014.28
2023-01-12 09:19:00,,0831.7,5.01,0.00,22.6,21.5,00.0,31.4,24.4,18.1,-002.6,0022.01,0014.60,0014.15
2023-01-12 09:20:00,,0831.7,5.00,0.00,22.6,21.4,00.0,31.4,24.4,18.1,-002.6,0021.93,0014.41,0013.92
2023-01-12 09:21:00,,0831.8,5.01,0.00,22.6,21.3,00.0,31.4,24.3,18.1,-002.6,0021.62,0014.13,0013.61
2023-01-12 09:22:00,,0831.8,5.00,0.00,22.6,21.3,00.0,31.4,24.3,18.1,-002.6,0021.36,0013.89,0013.32
2023-01-12 09:23:00,,0831.9,5.00,0.00,22.6,21.3,00.0,31.4,24.3,18.1,-002.6,0020.81,0013.54,0012.98
2023-01-12 09:24:00,,0831.9,5.00,0.00,22.6,21.3,00.0,31.5,24.3,18.1,-002.6,0020.00,0013.21,0012.64
2023-01-12 09:25:00,,0832.0,5.00,0.00,22.6,21.3,00.0,31.5,24.3,18.1,-002.6,0019.34,0012.94,0012.32
2023-01-12 09:26:00,,0832.0,5.00,0.00,22.5,21.3,00.0,31.4,24.3,18.0,-002.6,0019.09,0012.76,0012.10
2023-01-12 09:27:00,,0831.9,5.01,0.00,22.5,21.2,00.0,31.4,24.3,18.0,-002.6,0018.91,0012.49,0011.78
2023-01-12 09:28:00,,0831.9,5.00,0.00,22.5,21.1,00.0,31.4,24.2,18.3,-002.5,0018.23,0011.92,0011.19
2023-01-12 09:29:00,,0832.0,4.98,0.00,22.5,21.0,00.0,31.4,24.1,18.2,-002.6,0017.45,0011.33,0010.63
2023-01-12 09:30:00,,0832.0,5.00,0.00,22.4,21.0,00.0,31.4,24.1,18.2,-002.6,0016.51,0010.79,0010.13
2023-01-12 09:31:00,,0832.0,5.00,0.00,22.4,21.0,00.0,31.4,24.1,18.2,-002.8,0015.54,0010.26,0009.67
2023-01-12 09:32:00,,0831.9,5.00,0.00,22.4,21.0,00.0,31.4,24.1,18.3,-002.8,0014.88,0009.89,0009.34
2023-01-12 09:33:00,,0831.9,5.00,0.00,22.4,21.0,00.0,31.4,24.1,18.2,-002.9,0014.22,0009.50,0008.98
2023-01-12 09:34:00,,0831.9,5.02,0.00,22.4,21.0,00.0,31.4,24.1,18.3,-002.9,0013.93,0009.28,0008.81
2023-01-12 09:35:00,,0831.9,5.01,0.00,22.4,21.1,00.0,31.4,24.1,18.2,-002.8,0013.40,0009.01,0008.59
2023-01-12 09:36:00,,0831.9,5.00,0.00,22.4,21.0,00.0,31.3,24.1,18.3,-002.9,0012.92,0008.72,0008.40
2023-01-12 09:37:00,,0831.9,4.99,0.00,22.4,21.0,00.0,31.3,24.1,18.3,-003.1,0012.49,0008.43,0008.17
2023-01-12 09:38:00,,0832.0,5.00,0.00,22.3,20.9,00.0,31.3,24.1,18.3,-003.0,0012.09,0008.30,0008.10
2023-01-12 09:39:00,,0831.9,5.01,0.00,22.3,20.9,00.0,31.3,24.1,18.3,-003.1,0012.51,0008.43,0008.27
2023-01-12 09:40:00,,0832.0,5.01,0.00,22.3,21.1,00.0,31.3,24.1,18.3,-003.1,0012.78,0008.57,0008.44
2023-01-12 09:41:00,,0832.1,5.00,0.00,22.4,21.9,00.0,31.2,24.3,18.2,-003.1,0012.89,0008.67,0008.54
2023-01-12 09:42:00,,0832.1,5.00,0.00,22.5,22.8,00.0,31.3,24.5,18.1,-003.2,0013.15,0008.84,0008.70
2023-01-12 09:43:00,,0832.0,4.99,0.00,22.6,22.9,00.0,31.3,24.6,18.0,-003.2,0013.38,0008.98,0008.83
2023-01-12 09:44:00,,0831.9,4.98,0.00,22.6,22.5,00.0,31.4,24.6,18.0,-003.2,0013.51,0009.08,0008.94
2023-01-12 09:45:00,,0832.0,5.00,0.00,22.6,22.2,00.0,31.4,24.5,18.0,-003.1,0013.54,0009.14,0008.99
2023-01-12 09:46:00,,0831.9,5.00,0.00,22.6,21.9,00.0,31.4,24.5,18.0,-003.1,0013.60,0009.22,0009.07
2023-01-12 09:47:00,,0832.0,5.01,0.00,22.6,21.7,00.0,31.4,24.4,18.0,-003.1,0013.59,0009.26,0009.11
2023-01-12 09:48:00,,0832.1,5.00,0.00,22.6,21.5,00.0,31.4,24.4,17.7,-003.0,0013.59,0009.31,0009.15
2023-01-12 09:49:00,,0832.1,5.01,0.00,22.6,21.4,00.0,31.4,24.4,17.7,-003.0,0013.53,0009.30,0009.15
2023-01-12 09:50:00,,0832.1,5.00,0.00,22.6,21.3,00.0,31.4,24.3,17.7,-002.9,0013.03,0009.29,0009.14
2023-01-12 09:51:00,,0832.0,4.99,0.00,22.6,21.2,00.0,31.4,24.3,17.8,-002.8,0012.89,0009.32,0009.17
2023-01-12 09:52:00,,0832.0,4.99,0.00,22.6,21.1,00.0,31.4,24.3,17.8,-002.7,0013.08,0009.48,0009.33
2023-01-12 09:53:00,,0832.1,5.01,0.00,22.6,21.1,00.0,31.4,24.3,17.9,-002.5,0013.15,0009.55,0009.40
2023-01-12 09:54:00,,0832.1,5.00,0.00,22.5,21.1,00.0,31.4,24.3,18.0,-002.3,0013.20,0009.62,0009.49
2023-01-12 09:55:00,,0832.1,5.00,0.00,22.5,21.0,00.0,31.4,24.2,17.8,-002.3,0013.30,0009.72,0009.60
2023-01-12 09:56:00,,0832.1,5.00,0.00,22.5,21.0,00.0,31.4,24.2,17.7,-002.4,0013.30,0009.71,0009.60
2023-01-12 09:57:00,,0832.1,4.99,0.00,22.5,21.0,00.0,31.4,24.2,17.6,-002.4,0013.46,0009.79,0009.67
2023-01-12 09:58:00,,0832.1,4.99,0.00,22.5,21.0,00.0,31.4,24.2,17.6,-002.5,0013.76,0009.96,0009.84
2023-01-12 09:59:00,,0832.1,4.98,0.00,22.4,20.9,00.0,31.4,24.2,17.5,-002.6,0013.99,0010.08,0009.97
